[[{"header":{"parameterUnit":"m.s-1","parameterCategory":2,"la1":30.2991,"la2":30.254,"lo1":-89.0895,"lo2":-89.0444,"dy":0.0017,"dx":0.0017,"nx":28,"ny":28,"refTime":"2024-10-22T03:00:00:Z","depth":"0","parameterNumber":2,"parameterNumberName":"U-component_of_CURRENTS"},"data":[0,0,0,0,0,0,0,0,0,0,0,0,0,0,0,0,0,0,0,0,0,0,0,0,0,0,0,0,0,0,0,0,0,0,0,0,0,0,0,0,0,0,0,0,0,0,0,0,0,0,0,0,0,0,0,0,0,0,-0.3179,-0.3181,0,-0.3263,-0.3263,-0.3264,-0.3184,-0.3181,-0.3179,-0.3176,-0.3069,-0.3069,-0.3069,0,0,0,0,0,0,0,0,0,0,0,0,0,-0.2854,-0.2861,-0.3179,-0.3181,-0.3182,-0.3263,-0.3263,-0.3264,-0.3185,-0.3181,-0.3178,-0.3175,-0.307,-0.3069,-0.3069,0,0,0,0,0,0,0,0,0,0,0,0,0,-0.2967,-0.2863,-0.3179,-0.3157,-0.3156,-0.3263,-0.3263,-0.3264,-0.3185,-0.3181,-0.3177,-0.3174,-0.307,-0.3069,-0.3069,-0.3143,0,0,-0.3067,-0.3066,0,0,0,0,0,0,0,0,-0.2961,-0.2978,-0.3159,-0.3159,-0.3158,-0.3215,-0.311,-0.3216,-0.3186,-0.3168,-0.3176,-0.3172,-0.3107,-0.3104,-0.3122,-0.3138,-0.3133,-0.3067,-0.3066,-0.3066,-0.3066,0,0,0,0,0,0,0,-0.2953,-0.2974,-0.3206,-0.3161,-0.3161,-0.3111,-0.3122,-0.313,-0.315,-0.3169,-0.3165,-0.3186,-0.3104,-0.3123,-0.3118,-0.3132,-0.3067,-0.3066,-0.3066,-0.3065,-0.3161,-0.3164,0,0,0,0,0,0,-0.2967,-0.2968,-0.3203,-0.3209,-0.3055,-0.3121,-0.3133,-0.3195,-0.3154,-0.3147,-0.3189,-0.3182,-0.3126,-0.3119,-0.3114,-0.3151,-0.3066,-0.3065,-0.3065,-0.3158,-0.3162,-0.3165,0,0,0,0,0,0,-0.296,-0.2989,-0.32,-0.3091,-0.3115,-0.3132,-0.3201,-0.3199,-0.3201,-0.3172,-0.3159,-0.3191,-0.3122,-0.3115,-0.3124,-0.3147,-0.3065,-0.3065,-0.3155,-0.3159,-0.3163,-0.3255,0,0,0,0,0,0,-0.2951,-0.2987,-0.3027,-0.3095,-0.3123,-0.3267,-0.3205,-0.3204,-0.3224,-0.3215,-0.3171,-0.3158,-0.3119,-0.3126,-0.3124,-0.3145,-0.3064,-0.3151,-0.3157,-0.3162,-0.3248,-0.3262,-0.3274,0,0,0,0,0,-0.294,-0.3015,-0.303,-0.3057,-0.3183,-0.327,-0.3279,-0.327,-0.3228,-0.3251,-0.3219,-0.3158,-0.3158,-0.3129,-0.3125,-0.3146,-0.3148,-0.3155,-0.3161,-0.3243,-0.3259,-0.3274,0,0,0,0,0,0,-0.2869,-0.3017,-0.3033,-0.3142,-0.3203,-0.3258,-0.3285,-0.328,-0.328,-0.3258,-0.3203,-0.3191,-0.321,-0.3182,-0.315,-0.3195,-0.3141,-0.3148,-0.3205,-0.322,-0.3232,-0.3238,-0.3064,0,0,0,0,0,-0.2888,-0.2987,-0.3093,-0.3167,-0.3213,-0.3249,-0.3278,-0.3284,-0.3301,-0.3296,-0.3266,-0.3243,-0.3246,-0.3231,-0.3233,-0.3262,-0.3173,-0.3274,-0.3287,-0.3297,-0.3304,-0.3174,-0.3173,-0.3186,-0.3186,-0.3186,0,0,-0.2862,-0.2968,-0.3008,-0.3159,-0.3204,-0.3288,-0.3254,-0.3318,-0.3359,-0.3287,-0.3311,-0.3293,-0.3269,-0.3298,-0.3302,-0.3265,-0.3254,-0.3306,-0.3314,-0.3315,-0.318,-0.3178,-0.3176,-0.3191,-0.319,-0.3189,0,0,-0.2893,-0.2979,-0.3081,-0.3158,-0.3269,-0.3306,-0.3328,-0.3398,-0.3398,-0.3444,-0.34,-0.3395,-0.3399,-0.3384,-0.3376,-0.3466,-0.3334,-0.3468,-0.352,-0.3394,-0.339,-0.3386,-0.3283,-0.3268,-0.3461,-0.3461,-0.3461,0,-0.2852,-0.302,-0.3107,-0.323,-0.3287,-0.3319,-0.3408,-0.3441,-0.3488,-0.3483,-0.3457,-0.3452,-0.3439,-0.3451,-0.3496,-0.349,-0.3397,-0.3456,-0.3404,-0.3397,-0.3391,-0.3286,-0.3269,-0.3467,-0.3466,-0.3465,-0.3465,0,-0.297,-0.3097,-0.3159,-0.3332,-0.3396,-0.348,-0.3553,-0.3582,-0.3576,-0.3582,-0.3589,-0.3574,-0.3552,-0.3565,-0.3566,-0.354,-0.3483,-0.3436,-0.335,-0.3394,-0.3283,-0.3263,-0.3474,-0.3472,-0.3471,-0.3469,0,0,-0.2866,-0.3188,-0.3197,-0.3297,-0.346,-0.3516,-0.3596,-0.3664,-0.3646,-0.3686,-0.364,-0.3711,-0.3666,-0.366,-0.3641,-0.3564,-0.3468,-0.3497,-0.3488,-0.337,-0.3186,-0.3136,-0.3108,-0.3384,-0.3381,-0.3379,-0.3129,0,-0.2915,-0.3185,-0.3305,-0.3459,-0.359,-0.3644,-0.3689,-0.3733,-0.3725,-0.3681,-0.3672,-0.363,-0.3711,-0.3661,-0.3625,-0.3483,-0.3418,-0.3541,-0.3184,-0.3175,-0.3101,-0.3085,-0.297,-0.2736,-0.3109,-0.3105,-0.3102,0,-0.296,-0.3155,-0.3373,-0.3554,-0.3595,-0.3657,-0.3688,-0.3739,-0.3709,-0.368,-0.3665,-0.361,-0.3575,-0.3577,-0.3418,-0.348,-0.3373,-0.3267,-0.3252,-0.3157,-0.3087,-0.2753,-0.2684,-0.2683,-0.307,-0.3073,-0.3075,0,-0.2865,-0.3149,-0.333,-0.3409,-0.3628,-0.366,-0.3716,-0.3725,-0.3684,-0.3651,-0.3539,-0.3537,-0.3429,-0.3341,-0.3242,-0.3278,-0.2991,-0.2984,-0.2852,-0.2846,-0.2658,-0.2641,-0.252,-0.2845,-0.2846,-0.2847,-0.2847,0,-0.2878,-0.2984,-0.3302,-0.3399,-0.3484,-0.3628,-0.3611,-0.3656,-0.3588,-0.3479,-0.3523,-0.3392,-0.3349,-0.3204,-0.3157,-0.2955,-0.2928,-0.2852,-0.2769,-0.2694,-0.2685,-0.2604,-0.2653,-0.2837,-0.2839,-0.2841,-0.2843,0,-0.2743,-0.2974,-0.3167,-0.3423,-0.3468,-0.3516,-0.3537,-0.3468,-0.3466,-0.3299,-0.3258,-0.3197,-0.3045,-0.2996,-0.2795,-0.2782,-0.2565,-0.2561,-0.251,-0.2429,-0.2322,-0.2381,-0.2167,-0.2101,-0.2337,-0.2334,-0.2331,0,-0.2708,-0.2827,-0.3136,-0.3191,-0.3303,-0.3374,-0.3344,-0.3392,-0.3278,-0.3169,-0.302,-0.2888,-0.276,-0.2523,-0.2464,-0.2331,-0.2391,-0.2166,-0.2244,-0.2293,-0.2295,-0.2356,-0.2322,-0.2023,-0.2018,-0.2014,-0.2011,0,-0.2598,-0.2724,-0.2901,-0.3047,-0.3081,-0.3065,-0.3037,-0.2946,-0.2926,-0.2821,-0.2649,-0.2563,-0.2383,-0.2229,-0.2126,-0.2055,-0.2129,-0.2082,-0.2099,-0.2026,-0.2106,-0.2009,-0.225,-0.1977,-0.198,-0.1983,-0.1984,-0.1986,-0.244,-0.254,-0.2761,-0.2861,-0.2852,-0.2717,-0.2619,-0.2564,-0.2424,-0.2223,-0.2306,-0.214,-0.2082,-0.1921,-0.1853,-0.1744,-0.1834,-0.1711,-0.1769,-0.182,-0.1798,-0.2005,-0.1677,-0.1678,-0.168,-0.1681,-0.1682,0,-0.2247,-0.2406,-0.2517,-0.2584,-0.2422,-0.2496,-0.2339,-0.2194,-0.2017,-0.1904,-0.1805,-0.1745,-0.1639,-0.161,-0.1547,-0.1475,-0.1457,-0.146,-0.1513,-0.1483,-0.1591,-0.1624,-0.1308,-0.1308,-0.1308,-0.1308,-0.1308,-0.1308,-0.2148,-0.2251,-0.2377,-0.2153,-0.21,-0.1806,-0.1683,-0.1581,-0.1463,-0.1294,-0.1219,-0.1173,-0.1321,-0.1528,-0.1467,-0.1389,-0.1388,-0.1331,-0.1387,-0.1497,-0.1526,-0.1554,-0.1596,-0.1279,-0.128,-0.1202,-0.1202,-0.1202]},{"header":{"parameterUnit":"m.s-1","parameterCategory":2,"la1":30.2991,"la2":30.254,"lo1":-89.0895,"lo2":-89.0444,"dy":0.0017,"dx":0.0017,"nx":28,"ny":28,"refTime":"2024-10-22T03:00:00:Z","depth":"0","parameterNumber":3,"parameterNumberName":"V-component_of_CURRENTS"},"data":[0,0,0,0,0,0,0,0,0,0,0,0,0,0,0,0,0,0,0,0,0,0,0,0,0,0,0,0,0,0,0,0,0,0,0,0,0,0,0,0,0,0,0,0,0,0,0,0,0,0,0,0,0,0,0,0,0,0,-0.0528,-0.0526,0,-0.0385,-0.0383,-0.0381,-0.0303,-0.0303,-0.0303,-0.0303,-0.0152,-0.0149,-0.0145,0,0,0,0,0,0,0,0,0,0,0,0,0,-0.0657,-0.0655,-0.0528,-0.0526,-0.0524,-0.0385,-0.0383,-0.0381,-0.0303,-0.0303,-0.0303,-0.0303,-0.0154,-0.0149,-0.0144,0,0,0,0,0,0,0,0,0,0,0,0,0,-0.0565,-0.0654,-0.0528,-0.047,-0.0463,-0.0385,-0.0383,-0.038,-0.0303,-0.0303,-0.0303,-0.0303,-0.0155,-0.0149,-0.0144,-0.0111,0,0,-0.0126,-0.0123,0,0,0,0,0,0,0,0,-0.0571,-0.056,-0.048,-0.0473,-0.0466,-0.0362,-0.0373,-0.029,-0.0304,-0.0363,-0.0303,-0.0303,-0.0223,-0.0211,-0.0183,-0.0104,-0.0097,-0.0125,-0.0122,-0.0119,-0.0117,0,0,0,0,0,0,0,-0.0577,-0.0566,-0.047,-0.0478,-0.047,-0.0424,-0.0411,-0.0356,-0.0295,-0.0358,-0.0352,-0.0338,-0.0219,-0.0189,-0.0179,-0.0095,-0.0125,-0.012,-0.0117,-0.0114,0.0063,0.0064,0,0,0,0,0,0,-0.06,-0.0572,-0.0475,-0.0466,-0.052,-0.0422,-0.0408,-0.0395,-0.0295,-0.028,-0.0338,-0.0335,-0.0199,-0.0186,-0.0174,-0.0127,-0.0119,-0.0114,-0.011,0.0062,0.0063,0.0064,0,0,0,0,0,0,-0.0604,-0.0593,-0.048,-0.0516,-0.0499,-0.0421,-0.0406,-0.0392,-0.0365,-0.028,-0.0265,-0.0326,-0.0199,-0.0182,-0.0117,-0.0121,-0.0111,-0.0106,0.006,0.0062,0.0064,-0.0035,0,0,0,0,0,0,-0.0608,-0.0595,-0.0604,-0.0518,-0.0498,-0.0446,-0.0406,-0.039,-0.0357,-0.0351,-0.0265,-0.025,-0.0197,-0.0126,-0.0111,-0.0113,-0.0101,0.0059,0.0061,0.0063,-0.0034,-0.0037,-0.004,0,0,0,0,0,-0.0613,-0.0633,-0.0605,-0.0593,-0.0508,-0.0446,-0.0432,-0.0374,-0.0357,-0.0349,-0.028,-0.0253,-0.0101,-0.0121,-0.0103,-0.0103,0.0058,0.006,0.0063,-0.0032,-0.0037,-0.004,0,0,0,0,0,0,-0.0705,-0.0624,-0.0592,-0.0589,-0.0525,-0.0434,-0.0428,-0.0382,-0.0321,-0.0319,-0.0239,-0.0219,-0.0162,-0.0112,-0.0135,-0.0041,-0.0017,-0.0011,-0.0095,-0.0098,-0.0101,-0.0136,-0.0096,0,0,0,0,0,-0.0726,-0.0716,-0.0625,-0.0626,-0.0596,-0.0512,-0.0484,-0.0438,-0.037,-0.0343,-0.0278,-0.0204,-0.0136,-0.0103,-0.0036,0.001,0.006,0.0026,0.0022,0.0018,0.0006,0.0089,0.0091,0.0073,0.0073,0.0073,0,0,-0.0768,-0.072,-0.0718,-0.0645,-0.0593,-0.0561,-0.0495,-0.0457,-0.0431,-0.0337,-0.0292,-0.0216,-0.0124,-0.0067,-0.0038,-0.0029,0.0051,0.0022,0.0017,0.0007,0.0092,0.0094,0.0095,0.0075,0.0074,0.0074,0,0,-0.0841,-0.0796,-0.0806,-0.0749,-0.0673,-0.0613,-0.0605,-0.051,-0.0469,-0.0408,-0.033,-0.0256,-0.016,-0.009,-0.0043,-0.0023,0.0032,0.0,-0.005,0.003,0.0031,0.0033,0.0091,0.0099,-0.0005,-0.0005,-0.0005,0,-0.0899,-0.0885,-0.0802,-0.0784,-0.0751,-0.0643,-0.0638,-0.0574,-0.0472,-0.0434,-0.041,-0.0241,-0.0172,-0.0086,-0.008,-0.0035,0.0013,-0.0052,0.0021,0.0025,0.0028,0.0087,0.0097,-0.0009,-0.0009,-0.0008,-0.0008,0,-0.0964,-0.0944,-0.0945,-0.0883,-0.0838,-0.0816,-0.071,-0.0662,-0.0599,-0.0525,-0.0428,-0.0316,-0.0217,-0.0179,-0.0128,-0.0061,-0.0034,0.0005,0.0018,0.0023,0.0086,0.0098,-0.0016,-0.0014,-0.0013,-0.0012,0,0,-0.1104,-0.1014,-0.1011,-0.0991,-0.0885,-0.0856,-0.0805,-0.072,-0.0676,-0.0576,-0.051,-0.0393,-0.032,-0.0261,-0.0173,-0.0106,-0.0043,-0.0056,-0.0049,-0.0024,0.0119,0.0169,0.0187,0.0005,0.0007,0.0008,0.0149,0,-0.1179,-0.1184,-0.1106,-0.1098,-0.1085,-0.0963,-0.0915,-0.0821,-0.0724,-0.0628,-0.0499,-0.0398,-0.0352,-0.0292,-0.0225,-0.0069,-0.0015,-0.0086,0.0133,0.0139,0.0162,0.0202,0.0259,0.0393,0.0161,0.0163,0.0165,0,-0.1262,-0.1247,-0.1267,-0.1182,-0.1164,-0.1143,-0.1039,-0.098,-0.0813,-0.0726,-0.0611,-0.0483,-0.0355,-0.0312,-0.0103,-0.0151,-0.0042,0.0064,0.0073,0.0159,0.0211,0.0357,0.0424,0.0586,0.0183,0.0182,0.018,0,-0.14,-0.1352,-0.1379,-0.1352,-0.1246,-0.1232,-0.1175,-0.1028,-0.094,-0.0785,-0.0687,-0.0531,-0.0412,-0.0269,-0.0059,-0.0075,0.0176,0.0191,0.0331,0.0335,0.0449,0.046,0.0678,0.0318,0.0318,0.0317,0.0317,0,-0.1507,-0.1513,-0.1449,-0.1458,-0.1465,-0.1352,-0.131,-0.122,-0.1037,-0.091,-0.0757,-0.0613,-0.0392,-0.0205,-0.0061,0.0178,0.0175,0.0328,0.0383,0.0417,0.0423,0.0621,0.0667,0.0323,0.0322,0.0321,0.032,0,-0.1639,-0.16,-0.1617,-0.155,-0.1532,-0.1544,-0.1394,-0.1312,-0.116,-0.0984,-0.0921,-0.0649,-0.0408,-0.0189,0.0084,0.0201,0.0524,0.0486,0.0498,0.0552,0.0813,0.0849,0.1111,0.1212,0.066,0.0662,0.0664,0,-0.1704,-0.1733,-0.1714,-0.1712,-0.1687,-0.1655,-0.1582,-0.141,-0.1278,-0.0987,-0.088,-0.0611,-0.0375,0.0018,0.0272,0.0539,0.0649,0.0734,0.0713,0.0846,0.0929,0.0956,0.1023,0.0826,0.0829,0.0831,0.0833,0,-0.1813,-0.1814,-0.1826,-0.184,-0.1806,-0.1706,-0.1588,-0.1504,-0.1247,-0.1063,-0.0767,-0.0568,-0.018,0.0176,0.05,0.0656,0.0865,0.0792,0.0953,0.1094,0.1119,0.1236,0.069,0.0855,0.0853,0.0851,0.085,0.0849,-0.1881,-0.1931,-0.1945,-0.1953,-0.1869,-0.1709,-0.1627,-0.1422,-0.1205,-0.0795,-0.066,-0.0216,0.0111,0.0593,0.0756,0.1127,0.1066,0.1243,0.128,0.1298,0.1392,0.0873,0.1083,0.1082,0.1081,0.1081,0.108,0,-0.1946,-0.1992,-0.2021,-0.1966,-0.1821,-0.1763,-0.1557,-0.1398,-0.1125,-0.0644,-0.0297,0.0309,0.0684,0.101,0.1419,0.1614,0.1649,0.1708,0.1773,0.1822,0.1405,0.1408,0.167,0.167,0.167,0.167,0.167,0.167,-0.1975,-0.2056,-0.2083,-0.1921,-0.1807,-0.1577,-0.1447,-0.1221,-0.0878,-0.0196,0.0379,0.0784,0.1137,0.1653,0.2037,0.2068,0.2241,0.2217,0.23,0.2016,0.1975,0.1936,0.1954,0.2327,0.2327,0.2728,0.2732,0.2735]}],[{"header":{"parameterUnit":"m.s-1","parameterCategory":2,"la1":30.2991,"la2":30.254,"lo1":-89.0895,"lo2":-89.0444,"dy":0.0017,"dx":0.0017,"nx":28,"ny":28,"refTime":"2024-10-22T03:00:00:Z","depth":"2","parameterNumber":2,"parameterNumberName":"U-component_of_CURRENTS"},"data":[0,0,0,0,0,0,0,0,0,0,0,0,0,0,0,0,0,0,0,0,0,0,0,0,0,0,0,0,0,0,0,0,0,0,0,0,0,0,0,0,0,0,0,0,0,0,0,0,0,0,0,0,0,0,0,0,0,0,-0.2258,-0.226,0,-0.234,-0.2341,-0.2342,-0.2357,-0.2356,-0.2356,-0.2356,-0.2409,-0.241,-0.2412,0,0,0,0,0,0,0,0,0,0,0,0,0,-0.2173,-0.2174,-0.2258,-0.226,-0.2261,-0.234,-0.2341,-0.2342,-0.2357,-0.2356,-0.2356,-0.2356,-0.2408,-0.241,-0.2412,0,0,0,0,0,0,0,0,0,0,0,0,0,-0.2224,-0.2174,-0.2258,-0.2281,-0.2284,-0.234,-0.2341,-0.2342,-0.2357,-0.2356,-0.2356,-0.2355,-0.2407,-0.241,-0.2412,-0.2438,0,0,-0.242,-0.2421,0,0,0,0,0,0,0,0,-0.2221,-0.2227,-0.2276,-0.2279,-0.2283,-0.2341,-0.2331,-0.2374,-0.2357,-0.2325,-0.2356,-0.2355,-0.2386,-0.239,-0.2402,-0.244,-0.2442,-0.242,-0.2422,-0.2423,-0.2424,0,0,0,0,0,0,0,-0.2218,-0.2224,-0.2287,-0.2278,-0.2282,-0.2308,-0.2313,-0.2339,-0.2354,-0.2328,-0.233,-0.2345,-0.2387,-0.2399,-0.2403,-0.2443,-0.242,-0.2423,-0.2424,-0.2425,-0.2547,-0.2548,0,0,0,0,0,0,-0.2213,-0.222,-0.2284,-0.229,-0.2255,-0.2309,-0.2316,-0.232,-0.2354,-0.236,-0.2346,-0.2346,-0.2395,-0.24,-0.2405,-0.2475,-0.2423,-0.2425,-0.2427,-0.2545,-0.2547,-0.2549,0,0,0,0,0,0,-0.2211,-0.2217,-0.2281,-0.2261,-0.2271,-0.2311,-0.2316,-0.2322,-0.2363,-0.2369,-0.2373,-0.2385,-0.2395,-0.2401,-0.2445,-0.2475,-0.2427,-0.2429,-0.2543,-0.2546,-0.2548,-0.259,0,0,0,0,0,0,-0.2208,-0.2216,-0.2239,-0.226,-0.2272,-0.234,-0.2317,-0.2324,-0.2373,-0.2375,-0.2404,-0.2406,-0.2395,-0.2442,-0.2448,-0.2478,-0.2431,-0.2541,-0.2544,-0.2547,-0.2587,-0.2594,-0.26,0,0,0,0,0,-0.2204,-0.2221,-0.2239,-0.2248,-0.2294,-0.2342,-0.2352,-0.2376,-0.2376,-0.2408,-0.2416,-0.2407,-0.2466,-0.2445,-0.2452,-0.2484,-0.2539,-0.2543,-0.2547,-0.2584,-0.2593,-0.26,0,0,0,0,0,0,-0.2184,-0.2226,-0.2245,-0.2272,-0.2322,-0.2347,-0.2373,-0.2399,-0.2433,-0.242,-0.2431,-0.2435,-0.2484,-0.2485,-0.2462,-0.2529,-0.2501,-0.2507,-0.2527,-0.2535,-0.2542,-0.2507,-0.2433,0,0,0,0,0,-0.2196,-0.2229,-0.2271,-0.2301,-0.2318,-0.2356,-0.2386,-0.2398,-0.2423,-0.2438,-0.2472,-0.2487,-0.2502,-0.252,-0.2537,-0.2581,-0.2546,-0.2606,-0.2613,-0.2618,-0.2596,-0.2581,-0.2584,-0.2562,-0.2562,-0.2562,0,0,-0.2197,-0.2228,-0.2247,-0.2303,-0.2329,-0.2362,-0.2372,-0.2406,-0.2438,-0.2437,-0.25,-0.2518,-0.2521,-0.2559,-0.2581,-0.2566,-0.2609,-0.2623,-0.2628,-0.2601,-0.2585,-0.2587,-0.2588,-0.2564,-0.2564,-0.2563,0,0,-0.2208,-0.2239,-0.2269,-0.2308,-0.2359,-0.238,-0.2401,-0.2451,-0.2477,-0.2539,-0.2533,-0.2568,-0.2627,-0.262,-0.2622,-0.2682,-0.2646,-0.2704,-0.2709,-0.2697,-0.2697,-0.2697,-0.2656,-0.2652,-0.2706,-0.2707,-0.2707,0,-0.2215,-0.2246,-0.229,-0.2324,-0.2353,-0.2392,-0.2419,-0.2454,-0.2523,-0.2543,-0.2563,-0.2625,-0.2644,-0.2653,-0.2673,-0.2694,-0.2669,-0.2676,-0.2702,-0.2702,-0.2701,-0.2658,-0.2653,-0.2709,-0.2709,-0.2708,-0.2708,0,-0.224,-0.2274,-0.2288,-0.2345,-0.239,-0.2412,-0.246,-0.2503,-0.2546,-0.2587,-0.2638,-0.2662,-0.269,-0.2717,-0.2713,-0.2724,-0.2702,-0.2711,-0.2673,-0.2705,-0.2659,-0.2653,-0.2713,-0.2712,-0.2711,-0.271,0,0,-0.2224,-0.2291,-0.2305,-0.2327,-0.2392,-0.2424,-0.2466,-0.2519,-0.2549,-0.2618,-0.2657,-0.2697,-0.2717,-0.2718,-0.2727,-0.2722,-0.2711,-0.2718,-0.2716,-0.266,-0.2659,-0.2578,-0.2563,-0.2727,-0.2726,-0.2726,-0.2628,0,-0.223,-0.2275,-0.2326,-0.2378,-0.2385,-0.2437,-0.249,-0.2543,-0.2593,-0.2648,-0.2659,-0.2709,-0.2715,-0.2734,-0.2728,-0.2723,-0.2697,-0.2735,-0.2649,-0.2646,-0.2557,-0.2554,-0.2375,-0.2267,-0.2621,-0.262,-0.262,0,-0.2219,-0.2258,-0.2288,-0.2366,-0.2383,-0.2431,-0.2492,-0.2551,-0.2613,-0.2652,-0.2676,-0.2707,-0.2709,-0.2719,-0.2679,-0.2704,-0.2674,-0.266,-0.2657,-0.2553,-0.2553,-0.2295,-0.2242,-0.2609,-0.261,-0.261,-0.2611,0,-0.2131,-0.2225,-0.2242,-0.2266,-0.2364,-0.2395,-0.2464,-0.2541,-0.2587,-0.2647,-0.2675,-0.2692,-0.2694,-0.267,-0.2648,-0.2668,-0.2589,-0.2616,-0.2497,-0.249,-0.2302,-0.228,-0.256,-0.256,-0.2561,-0.2561,-0.2561,0,-0.2076,-0.2104,-0.2205,-0.2208,-0.2268,-0.236,-0.2419,-0.2485,-0.2566,-0.2603,-0.2669,-0.2664,-0.2684,-0.2654,-0.2631,-0.2529,-0.2569,-0.2471,-0.2455,-0.2314,-0.2295,-0.2568,-0.257,-0.2557,-0.2558,-0.2559,-0.2559,0,-0.1959,-0.2022,-0.2049,-0.2163,-0.2205,-0.225,-0.239,-0.2429,-0.2522,-0.2555,-0.2573,-0.263,-0.2585,-0.2577,-0.2529,-0.2487,-0.2422,-0.2372,-0.2191,-0.2156,-0.2332,-0.2338,-0.2225,-0.2221,-0.2218,-0.2215,-0.2213,0,-0.1916,-0.1883,-0.1986,-0.2024,-0.208,-0.2168,-0.2222,-0.2367,-0.2409,-0.2509,-0.2506,-0.2506,-0.2446,-0.2351,-0.2286,-0.2194,-0.2297,-0.1994,-0.2001,-0.2298,-0.2296,-0.2307,-0.2317,-0.1766,-0.176,-0.1756,-0.1752,0,-0.1787,-0.1795,-0.1828,-0.1895,-0.1963,-0.2042,-0.2138,-0.2164,-0.2308,-0.233,-0.2329,-0.2294,-0.2213,-0.2037,-0.1956,-0.1893,-0.2004,-0.1895,-0.2234,-0.1893,-0.1862,-0.1862,-0.1887,-0.171,-0.1715,-0.1718,-0.172,-0.1721,-0.1691,-0.168,-0.1693,-0.1764,-0.1839,-0.189,-0.1889,-0.1979,-0.2008,-0.2012,-0.2084,-0.1968,-0.1944,-0.1705,-0.1615,-0.1563,-0.1704,-0.1645,-0.1661,-0.1681,-0.166,-0.1627,-0.1424,-0.1427,-0.1429,-0.1431,-0.1432,0,-0.1536,-0.1534,-0.1571,-0.1635,-0.1651,-0.1745,-0.1801,-0.1757,-0.1712,-0.1744,-0.1702,-0.1506,-0.1383,-0.1373,-0.1216,-0.1195,-0.1201,-0.1157,-0.1167,-0.1208,-0.1244,-0.1204,-0.0845,-0.0843,-0.0842,-0.084,0,0,-0.1467,-0.1411,-0.1428,-0.1414,-0.1463,-0.1418,-0.1407,-0.136,-0.1342,-0.1251,-0.1198,-0.1281,-0.1304,-0.1071,-0.1022,-0.0902,-0.1045,-0.0854,-0.1321,-0.137,-0.1404,-0.1514,-0.1495,0,0,0,0,0]},{"header":{"parameterUnit":"m.s-1","parameterCategory":2,"la1":30.2991,"la2":30.254,"lo1":-89.0895,"lo2":-89.0444,"dy":0.0017,"dx":0.0017,"nx":28,"ny":28,"refTime":"2024-10-22T03:00:00:Z","depth":"2","parameterNumber":3,"parameterNumberName":"V-component_of_CURRENTS"},"data":[0,0,0,0,0,0,0,0,0,0,0,0,0,0,0,0,0,0,0,0,0,0,0,0,0,0,0,0,0,0,0,0,0,0,0,0,0,0,0,0,0,0,0,0,0,0,0,0,0,0,0,0,0,0,0,0,0,0,-0.0234,-0.0233,0,-0.0142,-0.014,-0.0139,-0.0058,-0.0057,-0.0057,-0.0056,0.0084,0.0087,0.009,0,0,0,0,0,0,0,0,0,0,0,0,0,-0.0246,-0.0246,-0.0234,-0.0233,-0.0232,-0.0142,-0.014,-0.0138,-0.0058,-0.0057,-0.0057,-0.0056,0.0083,0.0087,0.0091,0,0,0,0,0,0,0,0,0,0,0,0,0,-0.0201,-0.0246,-0.0234,-0.0185,-0.018,-0.0142,-0.014,-0.0138,-0.0058,-0.0057,-0.0056,-0.0056,0.0081,0.0086,0.0091,0.0108,0,0,0.0106,0.0109,0,0,0,0,0,0,0,0,-0.0204,-0.02,-0.0193,-0.0188,-0.0183,-0.0115,-0.0093,-0.0055,-0.0058,-0.0099,-0.0056,-0.0056,0.0018,0.0028,0.0051,0.0115,0.0121,0.0107,0.011,0.0112,0.0113,0,0,0,0,0,0,0,-0.0207,-0.0203,-0.0192,-0.0192,-0.0186,-0.0136,-0.0129,-0.0085,-0.004,-0.0095,-0.009,-0.0089,0.0022,0.0046,0.0055,0.0123,0.0107,0.0111,0.0114,0.0116,0.0232,0.0232,0,0,0,0,0,0,-0.0235,-0.0207,-0.0195,-0.019,-0.0198,-0.0137,-0.0129,-0.0133,-0.0042,-0.0029,-0.0089,-0.0085,0.0037,0.0049,0.006,0.0093,0.0112,0.0117,0.0119,0.0232,0.0232,0.0232,0,0,0,0,0,0,-0.0236,-0.0235,-0.0199,-0.02,-0.0192,-0.0139,-0.0143,-0.0132,-0.01,-0.0039,-0.0024,-0.007,0.0038,0.0053,0.0091,0.0099,0.0119,0.0123,0.0231,0.0232,0.0232,0.0155,0,0,0,0,0,0,-0.0237,-0.0236,-0.0235,-0.0202,-0.0193,-0.0179,-0.0144,-0.0131,-0.0103,-0.0097,-0.0017,-0.0004,0.004,0.0083,0.0096,0.0106,0.0127,0.0231,0.0232,0.0232,0.0157,0.0152,0.0148,0,0,0,0,0,-0.0237,-0.0255,-0.0236,-0.0234,-0.0199,-0.018,-0.017,-0.0125,-0.0104,-0.0093,-0.0048,-0.0006,0.0094,0.0087,0.0102,0.0114,0.0231,0.0231,0.0232,0.0159,0.0153,0.0148,0,0,0,0,0,0,-0.0266,-0.0247,-0.0226,-0.0238,-0.0209,-0.0168,-0.0159,-0.0127,-0.0082,-0.0079,-0.0011,0.0005,0.0047,0.0087,0.0077,0.0148,0.0173,0.0176,0.0113,0.0108,0.0103,0.0089,0.0131,0,0,0,0,0,-0.0273,-0.0276,-0.0247,-0.0255,-0.0246,-0.0199,-0.0182,-0.0158,-0.0122,-0.0099,-0.0042,0.0013,0.0059,0.0085,0.0134,0.0166,0.0208,0.0186,0.0182,0.0177,0.0177,0.0231,0.0231,0.0232,0.0232,0.0232,0,0,-0.0292,-0.0278,-0.0282,-0.0259,-0.0235,-0.0229,-0.0186,-0.0176,-0.0161,-0.0093,-0.005,0.0,0.0064,0.0101,0.0124,0.0135,0.0199,0.0178,0.0173,0.0175,0.0231,0.0231,0.0231,0.0233,0.0233,0.0232,0,0,-0.0334,-0.0315,-0.0329,-0.0307,-0.0281,-0.0255,-0.0254,-0.021,-0.0178,-0.0143,-0.0089,-0.0042,0.0035,0.0079,0.0111,0.011,0.0173,0.0134,0.0099,0.0151,0.0151,0.0152,0.02,0.0206,0.013,0.013,0.013,0,-0.0347,-0.0364,-0.0329,-0.0331,-0.0321,-0.0271,-0.0281,-0.0244,-0.0189,-0.0164,-0.014,-0.0025,0.0025,0.0074,0.0072,0.01,0.0139,0.0111,0.0144,0.0146,0.0148,0.0197,0.0204,0.0126,0.0127,0.0127,0.0127,0,-0.0399,-0.0401,-0.0411,-0.0393,-0.0374,-0.0381,-0.0335,-0.0305,-0.0262,-0.0218,-0.0154,-0.0084,-0.0016,0.0011,0.004,0.0083,0.0109,0.013,0.0152,0.0142,0.0196,0.0204,0.0121,0.0122,0.0123,0.0124,0,0,-0.0457,-0.0449,-0.045,-0.045,-0.041,-0.0408,-0.0383,-0.0345,-0.0326,-0.0254,-0.0214,-0.0135,-0.0088,-0.0049,0.0006,0.005,0.0092,0.0088,0.0092,0.0126,0.0207,0.0241,0.0254,0.0119,0.012,0.0121,0.0237,0,-0.0502,-0.0533,-0.0508,-0.0526,-0.0536,-0.0479,-0.0459,-0.0414,-0.0357,-0.0303,-0.0218,-0.0163,-0.0112,-0.0084,-0.003,0.0068,0.0113,0.0059,0.0221,0.0226,0.0249,0.0264,0.0235,0.0338,0.0246,0.0247,0.0248,0,-0.0554,-0.0567,-0.0602,-0.059,-0.0589,-0.0588,-0.0547,-0.0522,-0.0434,-0.0386,-0.031,-0.0234,-0.0149,-0.011,0.0048,0.0012,0.0099,0.0172,0.0179,0.0244,0.0276,0.0336,0.0358,0.0264,0.0262,0.0261,0.026,0,-0.0612,-0.0627,-0.0661,-0.0656,-0.0637,-0.0636,-0.0621,-0.055,-0.0527,-0.0438,-0.0403,-0.0284,-0.0216,-0.0095,0.0065,0.0056,0.0243,0.0251,0.0364,0.0367,0.0393,0.0397,0.0354,0.0354,0.0354,0.0353,0.0353,0,-0.0664,-0.069,-0.0696,-0.0711,-0.075,-0.0703,-0.0712,-0.0672,-0.0605,-0.0567,-0.0455,-0.0385,-0.0208,-0.0072,0.0057,0.0248,0.0242,0.0366,0.0403,0.0365,0.0365,0.0341,0.0338,0.0358,0.0357,0.0356,0.0355,0,-0.0717,-0.0724,-0.0764,-0.0769,-0.0779,-0.0804,-0.0791,-0.0787,-0.0712,-0.0654,-0.0628,-0.0456,-0.0267,-0.0086,0.0131,0.0243,0.0412,0.0476,0.042,0.0448,0.05,0.0491,0.0609,0.0611,0.0613,0.0615,0.0616,0,-0.0752,-0.0775,-0.0815,-0.0857,-0.0867,-0.0894,-0.0909,-0.0854,-0.0835,-0.0681,-0.0654,-0.046,-0.0292,0.0035,0.0253,0.0487,0.048,0.0586,0.0562,0.0503,0.0528,0.0516,0.0506,0.0566,0.0567,0.0568,0.0568,0,-0.0803,-0.0813,-0.0844,-0.0931,-0.0976,-0.1014,-0.1021,-0.1017,-0.0916,-0.0823,-0.0652,-0.0501,-0.018,0.0092,0.0381,0.0509,0.0544,0.0608,0.0579,0.0501,0.0472,0.0492,0.0482,0.0574,0.0574,0.0573,0.0573,0.0573,-0.0834,-0.0876,-0.092,-0.1003,-0.1063,-0.1107,-0.1115,-0.1072,-0.1001,-0.0822,-0.0667,-0.0402,-0.0154,0.027,0.0466,0.0634,0.0634,0.0674,0.0669,0.0663,0.0632,0.0608,0.073,0.073,0.073,0.0731,0.0731,0,-0.0853,-0.091,-0.0992,-0.1083,-0.1156,-0.1167,-0.1168,-0.112,-0.1005,-0.0811,-0.0602,-0.028,0.0023,0.0262,0.0539,0.071,0.0681,0.0726,0.0653,0.0647,0.0642,0.0606,0.0699,0.0699,0.07,0.07,0,0,-0.0868,-0.0947,-0.0995,-0.1135,-0.12,-0.1241,-0.1229,-0.111,-0.0964,-0.0728,-0.0523,-0.0267,0.0038,0.0227,0.0437,0.0574,0.0559,0.058,0.059,0.0473,0.0465,0.0602,0.054,0,0,0,0,0]}],[{"header":{"parameterUnit":"m.s-1","parameterCategory":2,"la1":30.2991,"la2":30.254,"lo1":-89.0895,"lo2":-89.0444,"dy":0.0017,"dx":0.0017,"nx":28,"ny":28,"refTime":"2024-10-22T03:00:00:Z","depth":"4","parameterNumber":2,"parameterNumberName":"U-component_of_CURRENTS"},"data":[0,0,0,0,0,0,0,0,0,0,0,0,0,0,0,0,0,0,0,0,0,0,0,0,0,0,0,0,0,0,0,0,0,0,0,0,0,0,0,0,0,0,0,0,0,0,0,0,0,0,0,0,0,0,0,0,0,0,-0.1292,-0.1293,0,-0.1405,-0.1406,-0.1407,-0.1467,-0.1468,-0.1468,-0.1468,-0.1553,-0.1555,-0.1557,0,0,0,0,0,0,0,0,0,0,0,0,0,-0.1198,-0.1199,-0.1291,-0.1293,-0.1295,-0.1405,-0.1406,-0.1408,-0.1467,-0.1468,-0.1468,-0.1468,-0.1552,-0.1554,-0.1557,0,0,0,0,0,0,0,0,0,0,0,0,0,-0.1266,-0.1199,-0.1291,-0.1339,-0.1344,-0.1404,-0.1406,-0.1408,-0.1467,-0.1468,-0.1468,-0.1468,-0.1551,-0.1554,-0.1557,-0.1569,0,0,-0.1566,-0.1568,0,0,0,0,0,0,0,0,-0.1262,-0.1269,-0.133,-0.1335,-0.1342,-0.1423,-0.1404,-0.1461,-0.1467,-0.1419,-0.1468,-0.1468,-0.1507,-0.1514,-0.1533,-0.1573,-0.1577,-0.1567,-0.1569,-0.157,-0.1571,0,0,0,0,0,0,0,-0.1257,-0.1265,-0.1335,-0.1332,-0.1339,-0.1379,-0.1388,-0.1416,-0.1458,-0.1423,-0.1428,-0.1443,-0.151,-0.153,-0.1535,-0.1578,-0.1567,-0.1569,-0.1571,-0.1572,-0.1695,-0.1696,0,0,0,0,0,0,-0.1242,-0.126,-0.1331,-0.1339,-0.1304,-0.138,-0.139,-0.1396,-0.1459,-0.1469,-0.1442,-0.1445,-0.1525,-0.1532,-0.1539,-0.1625,-0.157,-0.1573,-0.1574,-0.1693,-0.1695,-0.1696,0,0,0,0,0,0,-0.1239,-0.1247,-0.1327,-0.1304,-0.1317,-0.1381,-0.1387,-0.1398,-0.1446,-0.1474,-0.1484,-0.1483,-0.1525,-0.1534,-0.1581,-0.1625,-0.1574,-0.1577,-0.1692,-0.1694,-0.1696,-0.1752,0,0,0,0,0,0,-0.1236,-0.1245,-0.1262,-0.1302,-0.1318,-0.1384,-0.1387,-0.14,-0.1453,-0.1459,-0.1511,-0.1518,-0.1526,-0.1576,-0.1584,-0.1629,-0.1579,-0.169,-0.1693,-0.1695,-0.1749,-0.1756,-0.1763,0,0,0,0,0,-0.1232,-0.1262,-0.1261,-0.1271,-0.1332,-0.1385,-0.1398,-0.1443,-0.1455,-0.1486,-0.1512,-0.1518,-0.1599,-0.158,-0.1588,-0.1635,-0.1688,-0.1692,-0.1695,-0.1746,-0.1755,-0.1762,0,0,0,0,0,0,-0.1228,-0.1272,-0.1272,-0.1311,-0.1349,-0.1396,-0.1439,-0.1459,-0.1506,-0.1513,-0.1533,-0.1542,-0.16,-0.1606,-0.1585,-0.1677,-0.1646,-0.1651,-0.1682,-0.169,-0.1697,-0.1694,-0.1582,0,0,0,0,0,-0.123,-0.1266,-0.1301,-0.1332,-0.1355,-0.1397,-0.1431,-0.1454,-0.1493,-0.1517,-0.1553,-0.1586,-0.1617,-0.1644,-0.167,-0.1721,-0.1713,-0.1757,-0.1764,-0.177,-0.1773,-0.1799,-0.1808,-0.1707,-0.1707,-0.1707,0,0,-0.123,-0.1266,-0.1281,-0.1335,-0.137,-0.1412,-0.142,-0.1475,-0.1511,-0.1516,-0.159,-0.1613,-0.1634,-0.169,-0.1717,-0.1705,-0.1792,-0.1774,-0.1779,-0.1778,-0.1803,-0.1813,-0.1822,-0.1709,-0.1709,-0.1708,0,0,-0.1255,-0.1285,-0.1321,-0.136,-0.1418,-0.1445,-0.1464,-0.1522,-0.1554,-0.1609,-0.1623,-0.167,-0.1727,-0.1754,-0.177,-0.1831,-0.1824,-0.1849,-0.189,-0.1916,-0.1925,-0.1932,-0.1922,-0.1928,-0.1857,-0.1857,-0.1857,0,-0.1252,-0.1302,-0.1341,-0.1389,-0.1429,-0.1461,-0.1504,-0.154,-0.1606,-0.164,-0.1639,-0.1737,-0.1756,-0.1821,-0.1842,-0.1849,-0.1849,-0.1857,-0.1925,-0.1932,-0.1939,-0.1927,-0.1933,-0.186,-0.186,-0.186,-0.1859,0,-0.129,-0.1346,-0.1378,-0.1443,-0.1488,-0.1537,-0.158,-0.1632,-0.167,-0.1705,-0.1784,-0.1809,-0.1868,-0.1887,-0.1883,-0.1952,-0.193,-0.1926,-0.1902,-0.1952,-0.1936,-0.1941,-0.1865,-0.1864,-0.1863,-0.1862,0,0,-0.124,-0.1377,-0.1388,-0.1441,-0.1523,-0.1563,-0.1629,-0.17,-0.1753,-0.1809,-0.188,-0.1933,-0.1955,-0.1973,-0.1987,-0.201,-0.2049,-0.1994,-0.1994,-0.198,-0.2088,-0.1921,-0.191,-0.2064,-0.2066,-0.2067,-0.2053,0,-0.1257,-0.1362,-0.1422,-0.1518,-0.1577,-0.1637,-0.1699,-0.1765,-0.182,-0.1897,-0.1932,-0.1999,-0.1985,-0.2021,-0.2046,-0.2053,-0.2068,-0.2052,-0.2044,-0.2043,-0.1886,-0.1912,-0.2072,-0.2057,-0.2058,-0.2058,-0.2059,0,-0.1261,-0.1347,-0.1444,-0.1582,-0.161,-0.1668,-0.1779,-0.1836,-0.1934,-0.1978,-0.2046,-0.2074,-0.213,-0.2103,-0.2136,-0.213,-0.2114,-0.2106,-0.2105,-0.1933,-0.1886,-0.2,-0.2068,-0.2067,-0.2066,-0.2066,-0.2065,0,-0.1213,-0.1356,-0.1443,-0.1487,-0.1636,-0.1696,-0.1767,-0.1869,-0.1925,-0.2033,-0.2082,-0.2149,-0.2179,-0.219,-0.216,-0.2165,-0.2167,-0.2172,-0.2003,-0.1991,-0.2121,-0.2114,-0.2189,-0.2189,-0.2189,-0.2189,-0.2189,0,-0.1203,-0.1276,-0.1438,-0.1491,-0.1589,-0.1694,-0.1793,-0.1869,-0.1981,-0.2039,-0.2121,-0.2148,-0.2204,-0.2204,-0.2183,-0.2085,-0.2184,-0.2003,-0.1978,-0.2143,-0.2138,-0.2123,-0.2116,-0.2189,-0.2189,-0.2189,-0.2189,0,-0.1133,-0.1241,-0.1354,-0.1527,-0.1575,-0.1643,-0.1796,-0.186,-0.1975,-0.205,-0.2085,-0.2161,-0.2142,-0.2157,-0.2154,-0.2083,-0.2031,-0.1972,-0.2122,-0.2107,-0.1835,-0.1831,-0.1796,-0.179,-0.1785,-0.1781,-0.1778,0,-0.1103,-0.116,-0.135,-0.141,-0.1493,-0.1611,-0.1681,-0.183,-0.1889,-0.202,-0.2034,-0.2068,-0.2089,-0.1936,-0.1975,-0.1912,-0.1886,-0.1858,-0.1868,-0.1816,-0.1797,-0.1801,-0.1804,-0.177,-0.1768,-0.1767,-0.1766,0,-0.1039,-0.1117,-0.1213,-0.1339,-0.1433,-0.1527,-0.1641,-0.1675,-0.1824,-0.1945,-0.1914,-0.1889,-0.1853,-0.1814,-0.1765,-0.1729,-0.1883,-0.1805,-0.1816,-0.1825,-0.1784,-0.177,-0.1779,-0.1748,-0.1751,-0.1752,-0.1753,0,-0.0974,-0.1019,-0.1145,-0.1243,-0.1351,-0.1408,-0.1492,-0.155,-0.1618,-0.1768,-0.1737,-0.1762,-0.1819,-0.1716,-0.1676,-0.1616,-0.1601,-0.1564,-0.1588,-0.1608,-0.155,-0.147,-0.131,0,0,0,0,0,-0.0895,-0.0939,-0.1034,-0.1144,-0.1247,-0.1302,-0.1443,-0.153,-0.1671,-0.1597,-0.1666,-0.1616,-0.1545,-0.1555,-0.1451,-0.1601,-0.1618,-0.1477,-0.1593,-0.1651,-0.1671,-0.162,0,0,0,0,0,0,-0.0848,-0.0922,-0.0992,-0.1028,-0.1073,-0.1166,-0.1246,-0.135,-0.1324,-0.1456,-0.141,-0.1503,-0.1444,-0.1551,-0.1404,-0.141,-0.1449,-0.1503,-0.1498,-0.164,-0.1658,-0.1674,-0.1628,0,0,0,0,0]},{"header":{"parameterUnit":"m.s-1","parameterCategory":2,"la1":30.2991,"la2":30.254,"lo1":-89.0895,"lo2":-89.0444,"dy":0.0017,"dx":0.0017,"nx":28,"ny":28,"refTime":"2024-10-22T03:00:00:Z","depth":"4","parameterNumber":3,"parameterNumberName":"V-component_of_CURRENTS"},"data":[0,0,0,0,0,0,0,0,0,0,0,0,0,0,0,0,0,0,0,0,0,0,0,0,0,0,0,0,0,0,0,0,0,0,0,0,0,0,0,0,0,0,0,0,0,0,0,0,0,0,0,0,0,0,0,0,0,0,-0.0256,-0.0255,0,-0.0206,-0.0206,-0.0205,-0.0163,-0.0162,-0.0162,-0.0161,-0.0082,-0.008,-0.0079,0,0,0,0,0,0,0,0,0,0,0,0,0,-0.025,-0.0251,-0.0256,-0.0255,-0.0255,-0.0206,-0.0206,-0.0205,-0.0163,-0.0162,-0.0162,-0.0161,-0.0082,-0.008,-0.0078,0,0,0,0,0,0,0,0,0,0,0,0,0,-0.0232,-0.0251,-0.0256,-0.0228,-0.0225,-0.0206,-0.0206,-0.0205,-0.0163,-0.0162,-0.0162,-0.0161,-0.0083,-0.0081,-0.0078,-0.0076,0,0,-0.007,-0.0069,0,0,0,0,0,0,0,0,-0.0233,-0.0232,-0.0233,-0.023,-0.0226,-0.019,-0.0175,-0.016,-0.0163,-0.0186,-0.0161,-0.0161,-0.0116,-0.0111,-0.0103,-0.0072,-0.0069,-0.007,-0.0069,-0.0067,-0.0067,0,0,0,0,0,0,0,-0.0235,-0.0234,-0.0236,-0.0232,-0.0228,-0.0196,-0.0193,-0.0171,-0.0155,-0.0184,-0.0181,-0.0176,-0.0114,-0.0106,-0.0101,-0.0068,-0.007,-0.0068,-0.0066,-0.0065,-0.002,-0.002,0,0,0,0,0,0,-0.0245,-0.0236,-0.0238,-0.0234,-0.0228,-0.0197,-0.0194,-0.0202,-0.0156,-0.0148,-0.0177,-0.0174,-0.011,-0.0104,-0.0098,-0.008,-0.0067,-0.0065,-0.0064,-0.0019,-0.002,-0.002,0,0,0,0,0,0,-0.0246,-0.0247,-0.024,-0.0233,-0.023,-0.0198,-0.0208,-0.0202,-0.0193,-0.015,-0.0142,-0.0174,-0.0109,-0.0101,-0.0084,-0.0077,-0.0064,-0.0062,-0.0019,-0.0019,-0.002,-0.0053,0,0,0,0,0,0,-0.0246,-0.0248,-0.0255,-0.0234,-0.0231,-0.0231,-0.0208,-0.0201,-0.0191,-0.0188,-0.0146,-0.0137,-0.0108,-0.0089,-0.0082,-0.0073,-0.006,-0.0018,-0.0019,-0.002,-0.0052,-0.0055,-0.0057,0,0,0,0,0,-0.0246,-0.0259,-0.0256,-0.0256,-0.0243,-0.0231,-0.0226,-0.02,-0.0192,-0.019,-0.0167,-0.0139,-0.0087,-0.0087,-0.0079,-0.007,-0.0018,-0.0019,-0.002,-0.005,-0.0054,-0.0057,0,0,0,0,0,0,-0.026,-0.0256,-0.0251,-0.0263,-0.0249,-0.0224,-0.022,-0.0207,-0.0187,-0.0186,-0.0147,-0.0137,-0.0119,-0.0096,-0.0097,-0.0059,-0.0046,-0.0046,-0.0072,-0.0076,-0.0078,-0.0077,-0.0058,0,0,0,0,0,-0.0269,-0.0278,-0.0265,-0.0273,-0.0271,-0.0248,-0.024,-0.0227,-0.0208,-0.0198,-0.0169,-0.014,-0.0117,-0.0098,-0.0076,-0.0058,-0.0019,-0.0046,-0.0049,-0.0051,-0.0046,0.002,0.0024,-0.0022,-0.0022,-0.0022,0,0,-0.028,-0.0275,-0.0282,-0.0277,-0.0265,-0.0266,-0.0242,-0.0236,-0.0231,-0.0193,-0.0178,-0.0153,-0.0117,-0.0096,-0.0085,-0.0073,-0.0021,-0.0052,-0.0054,-0.0047,0.002,0.0025,0.0029,-0.0023,-0.0023,-0.0022,0,0,-0.03,-0.03,-0.0314,-0.0305,-0.0292,-0.028,-0.0283,-0.0262,-0.0247,-0.0236,-0.0205,-0.0175,-0.0145,-0.0107,-0.0088,-0.0093,-0.0044,-0.009,-0.0093,-0.003,-0.0025,-0.002,0.0022,0.0031,-0.0084,-0.0084,-0.0084,0,-0.031,-0.0327,-0.0314,-0.0318,-0.0313,-0.0292,-0.0301,-0.0285,-0.0259,-0.0242,-0.0237,-0.0172,-0.0145,-0.0102,-0.0106,-0.0097,-0.0062,-0.0083,-0.0032,-0.0026,-0.0021,0.0021,0.0032,-0.0086,-0.0085,-0.0085,-0.0085,0,-0.0336,-0.0348,-0.0353,-0.0356,-0.0348,-0.0353,-0.0332,-0.032,-0.0304,-0.0277,-0.0237,-0.0195,-0.015,-0.0139,-0.0126,-0.0074,-0.0064,-0.0048,-0.0021,-0.0018,0.0026,0.0037,-0.0088,-0.0087,-0.0087,-0.0086,0,0,-0.0367,-0.0373,-0.0377,-0.0385,-0.037,-0.0371,-0.036,-0.0339,-0.0326,-0.0286,-0.0254,-0.0209,-0.0174,-0.015,-0.0117,-0.0063,-0.0004,-0.0044,-0.004,0.0001,0.0124,0.0097,0.0107,0.0024,0.0026,0.0027,0.0134,0,-0.0392,-0.0421,-0.0409,-0.043,-0.0443,-0.0414,-0.0405,-0.0378,-0.0345,-0.0308,-0.0242,-0.0207,-0.0181,-0.0161,-0.01,-0.0032,0.0026,-0.0035,0.0112,0.0116,0.0096,0.012,0.0034,0.0143,0.0145,0.0147,0.0149,0,-0.0421,-0.0436,-0.047,-0.0471,-0.0473,-0.0479,-0.0457,-0.0443,-0.0378,-0.0348,-0.0282,-0.0232,-0.0152,-0.0134,0.0012,-0.0029,0.0043,0.0102,0.0108,0.0106,0.0111,0.0142,0.017,0.0168,0.0167,0.0165,0.0164,0,-0.0455,-0.0476,-0.0508,-0.0509,-0.0508,-0.0511,-0.0506,-0.0458,-0.0443,-0.037,-0.0343,-0.0235,-0.0184,-0.0071,0.0044,0.0033,0.0205,0.0209,0.0259,0.0258,0.0265,0.0259,0.0323,0.0323,0.0323,0.0322,0.0322,0,-0.0481,-0.0506,-0.0533,-0.0549,-0.0583,-0.0557,-0.0567,-0.0539,-0.0489,-0.0459,-0.0369,-0.0312,-0.0165,-0.0052,0.0052,0.0188,0.022,0.0267,0.0291,0.0244,0.0235,0.0272,0.0265,0.0326,0.0326,0.0325,0.0324,0,-0.0505,-0.0525,-0.0566,-0.059,-0.0603,-0.0627,-0.063,-0.0626,-0.057,-0.0525,-0.0503,-0.0364,-0.0214,-0.0067,0.0121,0.019,0.0325,0.0368,0.0298,0.0315,0.0332,0.0322,0.0434,0.0434,0.0434,0.0434,0.0434,0,-0.0517,-0.0545,-0.0609,-0.065,-0.0668,-0.0699,-0.0717,-0.0679,-0.0665,-0.0547,-0.0524,-0.0372,-0.0267,-0.0012,0.0131,0.0331,0.0353,0.0412,0.038,0.0335,0.0348,0.0337,0.0327,0.0435,0.0435,0.0435,0.0435,0,-0.0538,-0.0571,-0.0609,-0.07,-0.0748,-0.0785,-0.0801,-0.0794,-0.0722,-0.0673,-0.0517,-0.0366,-0.0197,-0.0007,0.0144,0.0288,0.0366,0.0414,0.0414,0.0384,0.0337,0.0347,0.0337,0.0435,0.0435,0.0435,0.0435,0,-0.0554,-0.0596,-0.0664,-0.0738,-0.0809,-0.0848,-0.0849,-0.0804,-0.0772,-0.0628,-0.0573,-0.0363,-0.0235,-0.0028,0.0118,0.0247,0.0272,0.0299,0.0306,0.0307,0.0228,0.0147,0.0218,0,0,0,0,0,-0.0556,-0.0615,-0.0696,-0.0782,-0.0853,-0.0888,-0.0893,-0.0874,-0.0802,-0.0698,-0.0628,-0.0456,-0.0203,-0.0084,0.0041,0.0085,0.0262,0.0231,0.0287,0.0437,0.0436,0.0362,0,0,0,0,0,0,-0.056,-0.0642,-0.0696,-0.0803,-0.0865,-0.0929,-0.0932,-0.0882,-0.0809,-0.071,-0.057,-0.0454,-0.0214,-0.0278,0.0035,0.0077,0.0123,0.0361,0.0363,0.0437,0.0437,0.0436,0.036,0,0,0,0,0]}]]